Regional Weather Roundup
Issued by NWS

Home | Current Version | Previous Version | Text Only | Print | Product List | Glossary Off
Versions: 1 2 3 4 5 6 7 8 9 10 11 12 13 14 15 16 17 18 19 20 21 22 23 24 25 26 27 28 29 30 31 32 33 34 35 36 37 38 39 40 41 42 43 44 45 46 47 48 49 50

697
ASUS45 KCYS 201710
RWRWY

WYOMING REGIONAL WEATHER ROUNDUP
NATIONAL WEATHER SERVICE CHEYENNE WY
1100 AM MDT THU JUL 20 2017

NOTE:  "FAIR" INDICATES FEW OR NO CLOUDS BELOW 12,000 FEET
WITH NO SIGNIFICANT WEATHER AND/OR OBSTRUCTIONS TO VISIBILITY.

WYZ001-201800-
YELLOWSTONE NATIONAL PARK

CITY           SKY/WX    TMP DP  RH WIND       PRES   REMARKS
LK YELLOWSTONE   N/A     65  48  54 W7G17     30.37R
W YELLOWSTONE  NOT AVBL

$$
WYZ002>013-054>058-071-098>099-201800-
NORTHERN WYOMING

CITY           SKY/WX    TMP DP  RH WIND       PRES   REMARKS
JACKSON        SUNNY     73  50  43 SW8       30.25S
CODY           FAIR      90  41  18 S9        30.07
GREYBULL       FAIR      88  53  30 S10       30.00F
WORLAND        NOT AVBL
SHERIDAN       NOT AVBL
BUFFALO        NOT AVBL
GILLETTE       NOT AVBL
HULETT         FAIR      88  54  31 S18G25    30.08F
NEWCASTLE      FAIR      84  52  32 SE14G22   30.12F

$$
WYZ014>020-022>026-101>103-201800-
CENTRAL WYOMING

CITY           SKY/WX    TMP DP  RH WIND       PRES   REMARKS
BIG PINEY      FAIR      72  51  47 S7        30.31F
PINEDALE       FAIR      73  46  38 SE5       30.32F
DUBOIS         FAIR      79  41  25 W6        30.26F
LANDER         FAIR      79  52  38 CALM      30.17F
RIVERTON       FAIR      78  51  38 CALM      30.16F
CASPER         FAIR      84  53  34 S20       30.16F
DOUGLAS        FAIR      87  51  28 S14G23    30.15F

$$
WYZ021-027>030-104>119-201800-
SOUTHERN WYOMING

CITY           SKY/WX    TMP DP  RH WIND       PRES   REMARKS
EVANSTON       FAIR      75  50  41 SW10      30.31F
KEMMERER         N/A     73  46  38 SW6       30.34S
FORT BRIDGER   FAIR      76  48  37 CALM      30.34F
ROCK SPRINGS   FAIR      75  48  38 SW6       30.30F
RAWLINS        NOT AVBL
SARATOGA       FAIR      73  48  40 S10       30.34S
LARAMIE        FAIR      77  47  34 W8        30.33F
CHEYENNE       FAIR      78  54  43 S8G17     30.28F
TORRINGTON     FAIR      80  62  54 S8        30.14F
PINE BLUFFS    FAIR      79  57  47 S6        30.22F

$$




USA.gov is the U.S. government's official web portal to all federal, state and local government web resources and services.